contact: severine.martini@mio.osupytheas.fr, dominique.lefevre@mio.osupytheas.fr
Project:EMSO Ligure-ouest http://www.emso-fr.org/EMSO-France
Sensor Optode, line 4330 Serial 272 
DOI : "https://doi.org/10.17882/97948" 
Title:EMSO Ligure Ouest : Data BathyDock capteur Optode - deploiement "2023-04-28"
Datetime,Profondeur,Latitude,Longitude,optode_type,serial,O2_concentration,O2_saturation,Temperature,Calibrated_Phase,Temp_Compensated_Phase,phase_blue_light,phase_red_light,Amplitude_blue_light,Amplitude_red_light,thermistor_bridge
time,m,degree_north,degree_east,1,1,umol.l-1,%,degree_C,degree,degree,degree,degree,mV,mV,mV
2023-12-15T00:00:07,2420,42.8014,5.9826,4330,272,186.511,57.115,13.304,36.039,36.619,41.205,4.586,295.7,545.2,291.4
2023-12-15T00:03:07,2420,42.8014,5.9826,4330,272,186.524,57.121,13.305,36.038,36.618,41.205,4.587,295.8,545.2,291.4
2023-12-15T00:06:07,2420,42.8014,5.9826,4330,272,186.445,57.095,13.304,36.044,36.624,41.215,4.591,295.7,545.2,291.4
2023-12-15T00:09:07,2420,42.8014,5.9826,4330,272,186.340,57.065,13.306,36.049,36.629,41.217,4.587,295.7,545.2,291.4
2023-12-15T00:12:07,2420,42.8014,5.9826,4330,272,186.415,57.084,13.303,36.047,36.627,41.213,4.587,295.8,545.2,291.5
2023-12-15T00:15:07,2420,42.8014,5.9826,4330,272,186.225,57.027,13.303,36.058,36.638,41.227,4.589,295.7,545.2,291.4
2023-12-15T00:18:07,2420,42.8014,5.9826,4330,272,186.568,57.134,13.305,36.035,36.615,41.202,4.587,295.7,545.2,291.4
2023-12-15T00:21:07,2420,42.8014,5.9826,4330,272,186.548,57.127,13.304,36.037,36.617,41.202,4.585,295.7,545.2,291.4
2023-12-15T00:24:08,2420,42.8014,5.9826,4330,272,186.324,57.061,13.306,36.051,36.631,41.213,4.582,295.7,545.2,291.4
2023-12-15T00:27:08,2420,42.8014,5.9826,4330,272,186.320,57.059,13.306,36.051,36.631,41.218,4.588,295.7,545.2,291.4
2023-12-15T00:30:08,2420,42.8014,5.9826,4330,272,186.196,57.021,13.306,36.059,36.639,41.231,4.591,295.7,545.1,291.4
2023-12-15T00:33:07,2420,42.8014,5.9826,4330,272,186.487,57.112,13.307,36.039,36.619,41.208,4.589,295.8,545.2,291.3
2023-12-15T00:36:07,2420,42.8014,5.9826,4330,272,186.224,57.031,13.307,36.057,36.637,41.224,4.587,295.7,545.2,291.3
2023-12-15T00:39:07,2420,42.8014,5.9826,4330,272,186.646,57.163,13.309,36.028,36.608,41.199,4.591,295.7,545.2,291.3
2023-12-15T00:42:07,2420,42.8014,5.9826,4330,272,186.390,57.079,13.304,36.048,36.628,41.215,4.587,295.8,545.2,291.4
2023-12-15T00:45:07,2420,42.8014,5.9826,4330,272,186.515,57.117,13.304,36.039,36.619,41.204,4.585,295.7,545.1,291.4
2023-12-15T00:48:08,2420,42.8014,5.9826,4330,272,186.461,57.101,13.305,36.042,36.622,41.212,4.589,295.7,545.2,291.4
2023-12-15T00:51:07,2420,42.8014,5.9826,4330,272,186.621,57.149,13.304,36.032,36.613,41.204,4.591,295.8,545.2,291.4
2023-12-15T00:54:08,2420,42.8014,5.9826,4330,272,186.327,57.060,13.305,36.051,36.631,41.219,4.588,295.8,545.2,291.4
2023-12-15T00:57:08,2420,42.8014,5.9826,4330,272,186.407,57.084,13.304,36.046,36.626,41.216,4.590,295.7,545.2,291.4
2023-12-15T01:00:08,2420,42.8014,5.9826,4330,272,186.420,57.088,13.304,36.045,36.625,41.216,4.591,295.7,545.2,291.4
2023-12-15T01:03:07,2420,42.8014,5.9826,4330,272,186.499,57.113,13.304,36.039,36.619,41.205,4.586,295.7,545.2,291.4
2023-12-15T01:06:07,2420,42.8014,5.9826,4330,272,186.311,57.054,13.304,36.053,36.633,41.221,4.588,295.8,545.1,291.4
2023-12-15T01:09:07,2420,42.8014,5.9826,4330,272,186.320,57.057,13.304,36.052,36.631,41.217,4.586,295.8,545.1,291.4
2023-12-15T01:12:07,2420,42.8014,5.9826,4330,272,186.496,57.111,13.304,36.040,36.620,41.211,4.591,295.7,545.2,291.4
2023-12-15T01:15:08,2420,42.8014,5.9826,4330,272,186.273,57.043,13.304,36.055,36.635,41.223,4.588,295.7,545.1,291.4
2023-12-15T01:18:08,2420,42.8014,5.9826,4330,272,186.459,57.101,13.305,36.042,36.622,41.212,4.590,295.7,545.2,291.4
2023-12-15T01:21:08,2420,42.8014,5.9826,4330,272,186.603,57.144,13.304,36.033,36.613,41.201,4.588,295.7,545.2,291.4
2023-12-15T01:24:07,2420,42.8014,5.9826,4330,272,186.476,57.106,13.305,36.041,36.621,41.214,4.593,295.7,545.2,291.4
2023-12-15T01:27:07,2420,42.8014,5.9826,4330,272,186.541,57.126,13.305,36.037,36.617,41.208,4.591,295.8,545.1,291.4
2023-12-15T01:30:07,2420,42.8014,5.9826,4330,272,186.397,57.082,13.305,36.046,36.626,41.213,4.587,295.7,545.2,291.4
2023-12-15T01:33:08,2420,42.8014,5.9826,4330,272,186.250,57.038,13.306,36.056,36.635,41.221,4.586,295.8,545.1,291.4
2023-12-15T01:36:07,2420,42.8014,5.9826,4330,272,186.488,57.112,13.307,36.040,36.620,41.209,4.589,295.7,545.2,291.3
2023-12-15T01:39:07,2420,42.8014,5.9826,4330,272,186.281,57.046,13.305,36.054,36.634,41.224,4.590,295.7,545.3,291.4
2023-12-15T01:42:07,2420,42.8014,5.9826,4330,272,186.509,57.117,13.306,36.039,36.619,41.205,4.586,295.8,545.2,291.4
2023-12-15T01:45:07,2420,42.8014,5.9826,4330,272,186.334,57.062,13.305,36.050,36.630,41.213,4.583,295.8,545.2,291.4
2023-12-15T01:48:08,2420,42.8014,5.9826,4330,272,186.398,57.082,13.305,36.046,36.626,41.211,4.585,295.8,545.2,291.4
2023-12-15T01:51:08,2420,42.8014,5.9826,4330,272,186.528,57.121,13.305,36.038,36.618,41.204,4.586,295.7,545.2,291.4
2023-12-15T01:54:08,2420,42.8014,5.9826,4330,272,186.448,57.096,13.304,36.044,36.624,41.212,4.588,295.7,545.2,291.4
2023-12-15T01:57:07,2420,42.8014,5.9826,4330,272,186.596,57.143,13.305,36.033,36.613,41.200,4.587,295.7,545.2,291.4
2023-12-15T02:00:07,2420,42.8014,5.9826,4330,272,186.337,57.061,13.303,36.051,36.631,41.219,4.588,295.8,545.2,291.4
2023-12-15T02:03:08,2420,42.8014,5.9826,4330,272,186.545,57.128,13.305,36.037,36.617,41.204,4.588,295.7,545.2,291.4
2023-12-15T02:06:07,2420,42.8014,5.9826,4330,272,186.387,57.077,13.304,36.047,36.627,41.215,4.588,295.7,545.2,291.4
2023-12-15T02:09:07,2420,42.8014,5.9826,4330,272,186.337,57.064,13.305,36.050,36.630,41.217,4.587,295.7,545.2,291.4
2023-12-15T02:12:07,2420,42.8014,5.9826,4330,272,186.493,57.110,13.304,36.041,36.621,41.208,4.588,295.8,545.2,291.4
2023-12-15T02:15:07,2420,42.8014,5.9826,4330,272,186.349,57.068,13.306,36.049,36.629,41.218,4.589,295.8,545.2,291.4
2023-12-15T02:18:07,2420,42.8014,5.9826,4330,272,186.338,57.064,13.305,36.050,36.630,41.218,4.588,295.7,545.2,291.4
2023-12-15T02:21:07,2420,42.8014,5.9826,4330,272,186.375,57.075,13.305,36.047,36.627,41.218,4.590,295.8,545.1,291.4
2023-12-15T02:24:07,2420,42.8014,5.9826,4330,272,186.452,57.101,13.306,36.042,36.622,41.209,4.587,295.8,545.2,291.3
2023-12-15T02:27:08,2420,42.8014,5.9826,4330,272,186.306,57.055,13.305,36.052,36.632,41.217,4.585,295.7,545.2,291.4
2023-12-15T02:30:08,2420,42.8014,5.9826,4330,272,186.478,57.105,13.304,36.042,36.622,41.208,4.587,295.8,545.2,291.4
2023-12-15T02:33:07,2420,42.8014,5.9826,4330,272,186.476,57.106,13.305,36.041,36.621,41.205,4.584,295.7,545.2,291.4
2023-12-15T02:36:07,2420,42.8014,5.9826,4330,272,186.578,57.138,13.306,36.034,36.614,41.203,4.589,295.7,545.2,291.4
2023-12-15T02:39:07,2420,42.8014,5.9826,4330,272,186.193,57.019,13.305,36.060,36.640,41.225,4.586,295.8,545.2,291.4
2023-12-15T02:42:07,2420,42.8014,5.9826,4330,272,186.286,57.051,13.308,36.052,36.632,41.219,4.586,295.8,545.2,291.3
2023-12-15T02:45:07,2420,42.8014,5.9826,4330,272,186.371,57.074,13.305,36.048,36.628,41.214,4.586,295.9,545.3,291.4
2023-12-15T02:48:07,2420,42.8014,5.9826,4330,272,186.496,57.111,13.304,36.040,36.620,41.212,4.591,295.8,545.2,291.4
2023-12-15T02:51:08,2420,42.8014,5.9826,4330,272,186.537,57.126,13.306,36.037,36.617,41.207,4.589,295.8,545.2,291.4
2023-12-15T02:54:08,2420,42.8014,5.9826,4330,272,186.418,57.087,13.304,36.045,36.625,41.213,4.588,295.8,545.2,291.4
2023-12-15T02:57:08,2420,42.8014,5.9826,4330,272,186.354,57.069,13.305,36.049,36.629,41.219,4.590,295.7,545.1,291.4
2023-12-15T03:00:08,2420,42.8014,5.9826,4330,272,186.434,57.093,13.305,36.044,36.624,41.214,4.590,295.7,545.2,291.4
2023-12-15T03:03:07,2420,42.8014,5.9826,4330,272,186.443,57.095,13.304,36.044,36.624,41.203,4.579,295.7,545.2,291.4
2023-12-15T03:06:08,2420,42.8014,5.9826,4330,272,186.350,57.067,13.305,36.050,36.630,41.217,4.588,295.7,545.2,291.4
2023-12-15T03:09:08,2420,42.8014,5.9826,4330,272,186.411,57.086,13.305,36.046,36.626,41.217,4.591,295.7,545.1,291.4
2023-12-15T03:12:07,2420,42.8014,5.9826,4330,272,186.324,57.058,13.304,36.051,36.631,41.222,4.591,295.7,545.2,291.4
2023-12-15T03:15:07,2420,42.8014,5.9826,4330,272,186.301,57.054,13.306,36.052,36.632,41.220,4.587,295.8,545.2,291.4
2023-12-15T03:18:07,2420,42.8014,5.9826,4330,272,186.259,57.043,13.307,36.054,36.634,41.219,4.585,295.8,545.2,291.3
2023-12-15T03:21:07,2420,42.8014,5.9826,4330,272,186.238,57.033,13.305,36.057,36.637,41.217,4.581,295.7,545.2,291.4
2023-12-15T03:24:07,2420,42.8014,5.9826,4330,272,186.346,57.067,13.306,36.049,36.629,41.219,4.590,295.8,545.2,291.4
2023-12-15T03:27:08,2420,42.8014,5.9826,4330,272,186.288,57.049,13.305,36.053,36.633,41.225,4.592,295.8,545.1,291.4
2023-12-15T03:30:08,2420,42.8014,5.9826,4330,272,186.369,57.073,13.305,36.049,36.628,41.218,4.590,295.8,545.2,291.4
2023-12-15T03:33:07,2420,42.8014,5.9826,4330,272,186.383,57.075,13.303,36.048,36.628,41.219,4.591,295.7,545.2,291.4
2023-12-15T03:36:07,2420,42.8014,5.9826,4330,272,186.430,57.090,13.303,36.045,36.625,41.212,4.587,295.8,545.2,291.5
2023-12-15T03:39:07,2420,42.8014,5.9826,4330,272,186.377,57.073,13.303,36.049,36.629,41.219,4.590,295.7,545.2,291.5
2023-12-15T03:42:07,2420,42.8014,5.9826,4330,272,186.344,57.066,13.305,36.050,36.630,41.217,4.587,295.8,545.1,291.4
2023-12-15T03:45:07,2420,42.8014,5.9826,4330,272,186.569,57.134,13.305,36.035,36.615,41.203,4.588,295.8,545.2,291.4
2023-12-15T03:48:08,2420,42.8014,5.9826,4330,272,186.352,57.066,13.303,36.050,36.629,41.216,4.587,295.7,545.2,291.4
2023-12-15T03:51:08,2420,42.8014,5.9826,4330,272,186.300,57.052,13.305,36.053,36.633,41.220,4.588,295.8,545.2,291.4
2023-12-15T03:54:08,2420,42.8014,5.9826,4330,272,186.313,57.059,13.307,36.051,36.631,41.219,4.588,295.8,545.2,291.3
2023-12-15T03:57:08,2420,42.8014,5.9826,4330,272,186.437,57.092,13.303,36.045,36.625,41.217,4.593,295.7,545.1,291.4
2023-12-15T04:00:08,2420,42.8014,5.9826,4330,272,186.465,57.101,13.304,36.043,36.623,41.213,4.591,295.8,545.2,291.4
2023-12-15T04:03:07,2420,42.8014,5.9826,4330,272,186.414,57.084,13.302,36.046,36.626,41.215,4.589,295.8,545.2,291.5
2023-12-15T04:06:07,2420,42.8014,5.9826,4330,272,186.489,57.108,13.303,36.041,36.621,41.210,4.589,295.8,545.2,291.4
2023-12-15T04:09:07,2420,42.8014,5.9826,4330,272,186.414,57.086,13.304,36.045,36.625,41.212,4.587,295.8,545.2,291.4
2023-12-15T04:12:07,2420,42.8014,5.9826,4330,272,186.230,57.028,13.303,36.059,36.639,41.223,4.584,295.7,545.2,291.5
2023-12-15T04:15:08,2420,42.8014,5.9826,4330,272,186.474,57.103,13.303,36.042,36.622,41.211,4.589,295.7,545.2,291.4
2023-12-15T04:18:08,2420,42.8014,5.9826,4330,272,186.543,57.124,13.303,36.038,36.618,41.204,4.587,295.8,545.2,291.5
2023-12-15T04:21:08,2420,42.8014,5.9826,4330,272,186.630,57.152,13.304,36.031,36.611,41.201,4.590,295.7,545.2,291.4
2023-12-15T04:24:08,2420,42.8014,5.9826,4330,272,186.380,57.076,13.305,36.047,36.627,41.217,4.590,295.7,545.1,291.4
2023-12-15T04:27:07,2420,42.8014,5.9826,4330,272,186.297,57.049,13.303,36.054,36.633,41.218,4.584,295.8,545.2,291.5
2023-12-15T04:30:07,2420,42.8014,5.9826,4330,272,186.738,57.185,13.304,36.025,36.605,41.193,4.588,295.8,545.2,291.4
2023-12-15T04:33:08,2420,42.8014,5.9826,4330,272,186.154,57.006,13.304,36.063,36.643,41.229,4.586,295.7,545.2,291.4
2023-12-15T04:36:07,2420,42.8014,5.9826,4330,272,186.455,57.098,13.303,36.044,36.624,41.211,4.587,295.8,545.2,291.4
2023-12-15T04:39:07,2420,42.8014,5.9826,4330,272,186.467,57.103,13.305,36.042,36.622,41.207,4.585,295.7,545.2,291.4
2023-12-15T04:42:07,2420,42.8014,5.9826,4330,272,186.468,57.102,13.304,36.043,36.623,41.212,4.590,295.8,545.1,291.4
2023-12-15T04:45:07,2420,42.8014,5.9826,4330,272,186.417,57.086,13.303,36.046,36.626,41.213,4.588,295.8,545.2,291.4
2023-12-15T04:48:07,2420,42.8014,5.9826,4330,272,186.560,57.129,13.303,36.037,36.617,41.201,4.584,295.7,545.2,291.5
2023-12-15T04:51:07,2420,42.8014,5.9826,4330,272,186.366,57.071,13.304,36.049,36.629,41.220,4.591,295.8,545.2,291.4
2023-12-15T04:54:07,2420,42.8014,5.9826,4330,272,186.577,57.135,13.304,36.036,36.616,41.202,4.587,295.8,545.2,291.4
2023-12-15T04:57:08,2420,42.8014,5.9826,4330,272,186.350,57.065,13.303,36.050,36.630,41.220,4.590,295.9,545.2,291.5
2023-12-15T05:00:08,2420,42.8014,5.9826,4330,272,186.517,57.117,13.304,36.039,36.619,41.208,4.589,295.7,545.2,291.4
2023-12-15T05:03:07,2420,42.8014,5.9826,4330,272,186.313,57.057,13.305,36.052,36.632,41.218,4.586,295.7,545.1,291.4
2023-12-15T05:06:07,2420,42.8014,5.9826,4330,272,186.355,57.067,13.303,36.050,36.630,41.220,4.590,295.8,545.2,291.4
2023-12-15T05:09:07,2420,42.8014,5.9826,4330,272,186.672,57.164,13.304,36.029,36.609,41.199,4.590,295.7,545.2,291.4
2023-12-15T05:12:07,2420,42.8014,5.9826,4330,272,186.424,57.090,13.305,36.045,36.625,41.215,4.590,295.8,545.1,291.4
2023-12-15T05:15:07,2420,42.8014,5.9826,4330,272,186.413,57.086,13.304,36.046,36.626,41.216,4.590,295.7,545.2,291.4
2023-12-15T05:18:08,2420,42.8014,5.9826,4330,272,186.458,57.102,13.306,36.042,36.622,41.209,4.588,295.8,545.2,291.3
2023-12-15T05:21:08,2420,42.8014,5.9826,4330,272,186.541,57.125,13.304,36.037,36.617,41.204,4.587,295.7,545.1,291.4
2023-12-15T05:24:08,2420,42.8014,5.9826,4330,272,186.579,57.136,13.303,36.035,36.615,41.205,4.589,295.7,545.2,291.4
2023-12-15T05:27:08,2420,42.8014,5.9826,4330,272,186.390,57.078,13.304,36.047,36.627,41.212,4.585,295.8,545.2,291.4
2023-12-15T05:30:08,2420,42.8014,5.9826,4330,272,186.312,57.053,13.303,36.053,36.633,41.222,4.589,295.7,545.2,291.5
2023-12-15T05:33:07,2420,42.8014,5.9826,4330,272,186.473,57.103,13.303,36.042,36.622,41.212,4.590,295.7,545.2,291.5
2023-12-15T05:36:07,2420,42.8014,5.9826,4330,272,186.629,57.153,13.305,36.031,36.611,41.200,4.589,295.8,545.2,291.4
2023-12-15T05:39:07,2420,42.8014,5.9826,4330,272,186.327,57.059,13.304,36.051,36.631,41.219,4.589,295.7,545.1,291.4
2023-12-15T05:42:07,2420,42.8014,5.9826,4330,272,186.397,57.080,13.303,36.047,36.627,41.213,4.586,295.8,545.2,291.4
2023-12-15T05:45:07,2420,42.8014,5.9826,4330,272,186.371,57.072,13.304,36.048,36.628,41.220,4.592,295.6,545.2,291.4
2023-12-15T05:48:08,2420,42.8014,5.9826,4330,272,186.557,57.128,13.303,36.037,36.617,41.207,4.590,295.7,545.2,291.5
2023-12-15T05:51:08,2420,42.8014,5.9826,4330,272,186.555,57.129,13.304,36.037,36.617,41.208,4.591,295.7,545.2,291.4
2023-12-15T05:54:08,2420,42.8014,5.9826,4330,272,186.544,57.125,13.303,36.038,36.618,41.203,4.585,295.7,545.2,291.4
2023-12-15T05:57:08,2420,42.8014,5.9826,4330,272,186.641,57.153,13.302,36.031,36.612,41.200,4.589,295.6,545.2,291.5
2023-12-15T06:00:07,2420,42.8014,5.9826,4330,272,186.403,57.082,13.304,36.046,36.626,41.214,4.587,295.7,545.1,291.4
2023-12-15T06:03:07,2420,42.8014,5.9826,4330,272,186.696,57.172,13.304,36.028,36.608,41.193,4.585,295.7,545.1,291.4
2023-12-15T06:06:07,2420,42.8014,5.9826,4330,272,186.470,57.102,13.303,36.042,36.622,41.212,4.590,295.7,545.2,291.4
2023-12-15T06:09:08,2420,42.8014,5.9826,4330,272,186.561,57.131,13.304,36.036,36.617,41.203,4.586,295.6,545.1,291.4
2023-12-15T06:12:08,2420,42.8014,5.9826,4330,272,186.420,57.084,13.301,36.046,36.626,41.211,4.585,295.6,545.2,291.5
2023-12-15T06:15:08,2420,42.8014,5.9826,4330,272,186.568,57.132,13.303,36.036,36.616,41.202,4.586,295.7,545.2,291.5
2023-12-15T06:18:08,2420,42.8014,5.9826,4330,272,186.501,57.111,13.303,36.040,36.620,41.210,4.590,295.7,545.2,291.5
2023-12-15T06:21:08,2420,42.8014,5.9826,4330,272,186.373,57.073,13.304,36.049,36.629,41.213,4.584,295.6,545.2,291.4
2023-12-15T06:24:07,2420,42.8014,5.9826,4330,272,186.659,57.159,13.303,36.030,36.610,41.194,4.584,295.7,545.2,291.5
2023-12-15T06:27:07,2420,42.8014,5.9826,4330,272,186.365,57.071,13.304,36.048,36.628,41.218,4.589,295.7,545.2,291.4
2023-12-15T06:30:07,2420,42.8014,5.9826,4330,272,186.415,57.085,13.303,36.046,36.626,41.215,4.589,295.6,545.2,291.5
2023-12-15T06:33:07,2420,42.8014,5.9826,4330,272,186.609,57.142,13.301,36.035,36.615,41.203,4.589,295.6,545.2,291.5
2023-12-15T06:36:07,2420,42.8014,5.9826,4330,272,186.478,57.104,13.303,36.042,36.622,41.212,4.590,295.7,545.2,291.5
2023-12-15T06:39:08,2420,42.8014,5.9826,4330,272,186.531,57.120,13.303,36.038,36.618,41.207,4.588,295.7,545.2,291.5
2023-12-15T06:42:08,2420,42.8014,5.9826,4330,272,186.537,57.121,13.302,36.038,36.618,41.204,4.586,295.7,545.2,291.5
2023-12-15T06:45:08,2420,42.8014,5.9826,4330,272,186.697,57.170,13.302,36.028,36.608,41.196,4.588,295.7,545.1,291.5
2023-12-15T06:48:07,2420,42.8014,5.9826,4330,272,186.772,57.193,13.302,36.023,36.604,41.190,4.587,295.7,545.1,291.5
2023-12-15T06:51:07,2420,42.8014,5.9826,4330,272,186.512,57.114,13.303,36.040,36.620,41.211,4.591,295.7,545.1,291.5
2023-12-15T06:54:07,2420,42.8014,5.9826,4330,272,186.653,57.158,13.303,36.031,36.611,41.200,4.590,295.7,545.2,291.4
2023-12-15T06:57:07,2420,42.8014,5.9826,4330,272,186.551,57.125,13.302,36.038,36.618,41.209,4.591,295.7,545.2,291.5
2023-12-15T07:00:07,2420,42.8014,5.9826,4330,272,186.520,57.115,13.301,36.040,36.620,41.213,4.593,295.7,545.1,291.5
2023-12-15T07:03:07,2420,42.8014,5.9826,4330,272,186.569,57.132,13.303,36.037,36.617,41.205,4.588,295.7,545.1,291.5
2023-12-15T07:06:07,2420,42.8014,5.9826,4330,272,186.450,57.094,13.302,36.045,36.625,41.212,4.588,295.7,545.2,291.5
2023-12-15T07:09:07,2420,42.8014,5.9826,4330,272,186.581,57.133,13.301,36.036,36.616,41.202,4.586,295.6,545.2,291.5
2023-12-15T07:12:08,2420,42.8014,5.9826,4330,272,186.526,57.118,13.302,36.039,36.619,41.206,4.587,295.7,545.2,291.5
2023-12-15T07:15:08,2420,42.8014,5.9826,4330,272,186.554,57.126,13.302,36.038,36.618,41.204,4.586,295.7,545.1,291.5
2023-12-15T07:18:08,2420,42.8014,5.9826,4330,272,186.682,57.165,13.302,36.030,36.610,41.198,4.588,295.6,545.1,291.5
2023-12-15T07:21:08,2420,42.8014,5.9826,4330,272,186.797,57.200,13.302,36.022,36.602,41.197,4.595,295.6,545.1,291.5
2023-12-15T07:24:07,2420,42.8014,5.9826,4330,272,186.475,57.104,13.304,36.042,36.622,41.211,4.589,295.6,545.2,291.4
2023-12-15T07:27:07,2420,42.8014,5.9826,4330,272,186.565,57.132,13.304,36.036,36.616,41.204,4.588,295.7,545.1,291.4
2023-12-15T07:30:07,2420,42.8014,5.9826,4330,272,186.765,57.193,13.304,36.023,36.603,41.191,4.588,295.7,545.2,291.4
2023-12-15T07:33:07,2420,42.8014,5.9826,4330,272,186.364,57.069,13.303,36.049,36.629,41.216,4.587,295.6,545.2,291.5
2023-12-15T07:36:07,2420,42.8014,5.9826,4330,272,186.392,57.081,13.305,36.047,36.627,41.212,4.585,295.7,545.1,291.4
2023-12-15T07:39:07,2420,42.8014,5.9826,4330,272,186.407,57.084,13.304,36.047,36.626,41.215,4.589,295.6,545.2,291.4
2023-12-15T07:42:08,2420,42.8014,5.9826,4330,272,186.487,57.108,13.304,36.041,36.621,41.205,4.584,295.6,545.1,291.4
2023-12-15T07:45:08,2420,42.8014,5.9826,4330,272,186.661,57.159,13.302,36.030,36.611,41.200,4.589,295.6,545.2,291.5
2023-12-15T07:48:08,2420,42.8014,5.9826,4330,272,186.662,57.159,13.301,36.031,36.611,41.199,4.588,295.6,545.2,291.5
2023-12-15T07:51:08,2420,42.8014,5.9826,4330,272,186.552,57.126,13.302,36.038,36.618,41.205,4.587,295.6,545.2,291.5
2023-12-15T07:54:08,2420,42.8014,5.9826,4330,272,186.596,57.137,13.301,36.035,36.615,41.205,4.590,295.6,545.2,291.5
2023-12-15T07:57:07,2420,42.8014,5.9826,4330,272,186.513,57.114,13.303,36.040,36.620,41.209,4.589,295.6,545.2,291.5
2023-12-15T08:00:07,2420,42.8014,5.9826,4330,272,186.481,57.104,13.302,36.042,36.622,41.205,4.583,295.6,545.2,291.5
2023-12-15T08:03:07,2420,42.8014,5.9826,4330,272,186.614,57.146,13.303,36.033,36.614,41.202,4.588,295.6,545.2,291.5
2023-12-15T08:06:07,2420,42.8014,5.9826,4330,272,186.638,57.153,13.303,36.031,36.611,41.201,4.589,295.7,545.1,291.5
2023-12-15T08:09:08,2420,42.8014,5.9826,4330,272,186.753,57.189,13.304,36.024,36.604,41.194,4.590,295.6,545.2,291.4
2023-12-15T08:12:07,2420,42.8014,5.9826,4330,272,186.597,57.140,13.302,36.034,36.614,41.205,4.590,295.7,545.3,291.5
2023-12-15T08:15:07,2420,42.8014,5.9826,4330,272,186.501,57.108,13.301,36.042,36.622,41.207,4.586,295.6,545.2,291.5
2023-12-15T08:18:07,2420,42.8014,5.9826,4330,272,186.609,57.143,13.302,36.034,36.614,41.205,4.591,295.6,545.2,291.5
2023-12-15T08:21:07,2420,42.8014,5.9826,4330,272,186.725,57.179,13.303,36.026,36.606,41.189,4.583,295.7,545.2,291.5
2023-12-15T08:24:07,2420,42.8014,5.9826,4330,272,186.397,57.079,13.302,36.048,36.628,41.214,4.586,295.7,545.2,291.5
2023-12-15T08:27:07,2420,42.8014,5.9826,4330,272,186.443,57.092,13.302,36.045,36.625,41.210,4.585,295.7,545.3,291.5
2023-12-15T08:30:08,2420,42.8014,5.9826,4330,272,186.533,57.120,13.302,36.039,36.619,41.206,4.587,295.7,545.3,291.5
2023-12-15T08:33:07,2420,42.8014,5.9826,4330,272,186.690,57.167,13.301,36.029,36.609,41.198,4.588,295.7,545.2,291.5
2023-12-15T08:36:07,2420,42.8014,5.9826,4330,272,186.706,57.173,13.302,36.028,36.608,41.194,4.586,295.7,545.1,291.5
2023-12-15T08:39:08,2420,42.8014,5.9826,4330,272,186.564,57.130,13.302,36.037,36.617,41.202,4.585,295.6,545.2,291.5
2023-12-15T08:42:08,2420,42.8014,5.9826,4330,272,186.710,57.174,13.302,36.028,36.608,41.196,4.588,295.6,545.2,291.5
2023-12-15T08:45:08,2420,42.8014,5.9826,4330,272,186.653,57.158,13.303,36.031,36.611,41.198,4.587,295.6,545.2,291.5
2023-12-15T08:48:08,2420,42.8014,5.9826,4330,272,186.836,57.213,13.303,36.019,36.599,41.190,4.591,295.6,545.2,291.5
2023-12-15T08:51:08,2420,42.8014,5.9826,4330,272,186.516,57.115,13.302,36.040,36.620,41.205,4.585,295.7,545.1,291.5
2023-12-15T08:54:07,2420,42.8014,5.9826,4330,272,186.649,57.155,13.302,36.031,36.612,41.198,4.587,295.7,545.3,291.5
2023-12-15T08:57:07,2420,42.8014,5.9826,4330,272,186.793,57.200,13.303,36.022,36.602,41.190,4.588,295.6,545.2,291.5
2023-12-15T09:00:08,2420,42.8014,5.9826,4330,272,186.541,57.122,13.302,36.039,36.619,41.207,4.589,295.7,545.1,291.5
2023-12-15T09:03:07,2420,42.8014,5.9826,4330,272,186.732,57.181,13.302,36.025,36.605,41.193,4.588,295.7,545.3,291.5
2023-12-15T09:06:07,2420,42.8014,5.9826,4330,272,186.517,57.115,13.302,36.040,36.620,41.207,4.586,295.7,545.2,291.5
2023-12-15T09:09:07,2420,42.8014,5.9826,4330,272,186.425,57.086,13.302,36.046,36.626,41.206,4.580,295.6,545.2,291.5
2023-12-15T09:12:08,2420,42.8014,5.9826,4330,272,186.543,57.122,13.302,36.039,36.619,41.208,4.589,295.6,545.2,291.5
2023-12-15T09:15:07,2420,42.8014,5.9826,4330,272,186.632,57.150,13.302,36.032,36.612,41.202,4.590,295.5,545.2,291.5
2023-12-15T09:18:07,2420,42.8014,5.9826,4330,272,186.454,57.094,13.301,36.044,36.624,41.210,4.586,295.7,545.1,291.5
2023-12-15T09:21:07,2420,42.8014,5.9826,4330,272,186.714,57.178,13.304,36.026,36.606,41.194,4.588,295.6,545.3,291.4
2023-12-15T09:24:07,2420,42.8014,5.9826,4330,272,186.758,57.189,13.302,36.025,36.605,41.195,4.591,295.7,545.2,291.5
2023-12-15T09:27:07,2420,42.8014,5.9826,4330,272,186.430,57.088,13.302,36.045,36.625,41.213,4.588,295.6,545.3,291.5
2023-12-15T09:30:08,2420,42.8014,5.9826,4330,272,186.812,57.204,13.301,36.021,36.602,41.194,4.592,295.6,545.2,291.5
2023-12-15T09:33:07,2420,42.8014,5.9826,4330,272,186.603,57.141,13.302,36.034,36.614,41.204,4.590,295.6,545.2,291.5
2023-12-15T09:36:07,2420,42.8014,5.9826,4330,272,186.436,57.090,13.302,36.045,36.625,41.213,4.588,295.5,545.2,291.5
2023-12-15T09:39:08,2420,42.8014,5.9826,4330,272,186.636,57.151,13.302,36.032,36.612,41.198,4.585,295.6,545.2,291.5
2023-12-15T09:42:08,2420,42.8014,5.9826,4330,272,186.573,57.132,13.302,36.037,36.617,41.205,4.588,295.6,545.3,291.5
2023-12-15T09:45:08,2420,42.8014,5.9826,4330,272,186.436,57.089,13.301,36.045,36.625,41.208,4.583,295.6,545.2,291.5
2023-12-15T09:48:08,2420,42.8014,5.9826,4330,272,186.549,57.123,13.301,36.038,36.618,41.206,4.588,295.6,545.2,291.5
2023-12-15T09:51:08,2420,42.8014,5.9826,4330,272,186.739,57.182,13.301,36.026,36.606,41.196,4.590,295.6,545.2,291.5
2023-12-15T09:54:08,2420,42.8014,5.9826,4330,272,186.702,57.172,13.302,36.028,36.608,41.194,4.586,295.6,545.2,291.5
2023-12-15T09:57:07,2420,42.8014,5.9826,4330,272,186.547,57.123,13.301,36.038,36.618,41.208,4.589,295.6,545.2,291.5
2023-12-15T10:00:07,2420,42.8014,5.9826,4330,272,186.789,57.199,13.302,36.022,36.603,41.190,4.587,295.7,545.2,291.5